Weather reports worldwide

Advertisment
Perpignan, France (7747): temperature & dewpoint: 19.09.2018 12:00:00 - 25.09.2018 12:00:00 (CEST)Perpignan, France (7747): temperature 5cm: 19.09.2018 12:00:00 - 25.09.2018 12:00:00 (CEST)Perpignan, France (7747): temperature -20cm & temperature -100cm: 19.09.2018 12:00:00 - 25.09.2018 12:00:00 (CEST)Perpignan, France (7747): wind speed & gusts: 19.09.2018 12:00:00 - 25.09.2018 12:00:00 (CEST)Perpignan, France (7747): wind direction: 19.09.2018 12:00:00 - 25.09.2018 12:00:00 (CEST)Perpignan, France (7747): reduced air pressure: 19.09.2018 12:00:00 - 25.09.2018 12:00:00 (CEST)Perpignan, France (7747): visibility: 19.09.2018 12:00:00 - 25.09.2018 12:00:00 (CEST)Perpignan, France (7747): precipitation: 19.09.2018 12:00:00 - 25.09.2018 12:00:00 (CEST)
Date & Time tt [°C] td [°C] tt 5cm [°C] tt -20cm [°C] tt -100cm [°C] ff [km/h] ff [kn] fx [km/h] fx [kn] dd ppp [hPa] vv [km] rr [mm]
25.09.2018 12:00:00 22,0 5,0 27,4 23,8 25,9 14 7 22 12 ENE 1027,9 60 0,0
25.09.2018 11:00:00 20,2 6,5 24,7 23,8 25,9 6 3 19 10 N 1027,9 59 0,0
25.09.2018 10:00:00 18,9 6,7 17,5 24,0 25,9 11 6 18 10 NW 1027,7 59 0,0
25.09.2018 09:00:00 15,7 8,0 11,5 24,2 25,9 11 6 19 10 SW 1027,4 60 0,0
25.09.2018 08:00:00 14,0 7,5 10,1 24,4 25,9 7 4 11 6 SW 1026,9 60 0,0
25.09.2018 07:00:00 14,3 6,4 10,7 24,6 25,9 6 4 24 13 W 1026,4 60 0,0
25.09.2018 06:00:00 14,8 5,6 11,8 24,8 25,9 13 7 29 16 WNW 1026,3 60 0,0
25.09.2018 05:00:00 15,4 5,6 13,0 25,0 25,9 11 6 25 13 WNW 1026,1 60 0,0
25.09.2018 04:00:00 16,2 5,8 13,3 25,2 25,9 13 7 28 15 NW 1026,2 60 0,0
25.09.2018 03:00:00 16,2 6,3 10,8 25,5 25,9 11 6 28 15 NNW 1026,6 60 0,0
25.09.2018 02:00:00 15,6 6,3 12,9 25,7 25,9 6 3 36 19 E 1026,8 60 0,0
25.09.2018 01:00:00 17,5 6,1 16,3 25,9 25,9 23 12 41 22 NW 1026,5 60 0,0
25.09.2018 00:00:00 17,7 7,1 16,3 26,2 25,9 24 13 45 24 NW 1026,2 60 0,0
24.09.2018 23:00:00 17,7 7,1 16,2 26,4 25,9 21 11 34 18 WNW 1026,3 60 0,0
24.09.2018 22:00:00 18,2 7,0 16,3 26,6 25,9 19 11 37 20 WNW 1025,9 60 0,0
24.09.2018 21:00:00 18,3 7,7 17,1 26,8 25,9 21 11 61 33 WNW 1025,0 60 0,0
24.09.2018 20:00:00 18,9 8,2 18,0 27,0 25,9 27 15 56 31 NW 1024,4 60 0,0
24.09.2018 19:00:00 20,2 8,5 20,0 27,0 25,9 25 14 68 37 NW 1023,8 44 0,0
24.09.2018 18:00:00 20,9 9,2 22,3 27,0 25,9 44 24 74 40 NNW 1022,5 11 0,0
24.09.2018 17:00:00 21,3 10,1 23,7 26,8 25,9 43 23 82 44 NNW 1023,2 11 0,0
24.09.2018 16:00:00 21,9 11,6 24,6 26,6 25,9 41 22 72 39 NW 1023,6 13 0,0
24.09.2018 15:00:00 22,2 11,9 25,2 26,3 25,9 42 23 65 35 NW 1023,8 16 0,0
24.09.2018 14:00:00 22,6 12,5 27,4 26,1 25,8 37 20 67 36 NW 1024,3 22 0,0
24.09.2018 13:00:00 23,2 13,7 28,5 26,0 25,9 37 20 67 36 NW 1024,1 27 0,0
24.09.2018 12:00:00 22,9 13,7 27,1 25,9 25,8 39 21 63 34 NW 1024,4 34 0,0
24.09.2018 11:00:00 22,6 13,9 25,5 26,0 25,9 36 19 60 32 NNW 1023,7 42 0,0
24.09.2018 10:00:00 22,1 14,7 24,6 26,1 25,9 33 18 54 29 NNW 1023,4 51 0,0
24.09.2018 09:00:00 22,5 16,1 21,7 26,2 25,8 27 15 44 24 NNW 1022,6 58 0,0
24.09.2018 08:00:00 22,1 17,2 21,8 26,3 25,9 11 6 32 17 NNW 1022,3 60 0,0
24.09.2018 07:00:00 22,5 17,0 22,2 26,5 25,9 23 12 53 29 NW 1021,6 60 0,0
24.09.2018 06:00:00 23,6 16,4 23,0 26,6 25,9 33 18 56 30 NNW 1021,2 60 0,0
24.09.2018 05:00:00 23,9 16,2 22,7 26,7 25,9 27 14 46 25 NNW 1020,9 60 0,0
24.09.2018 04:00:00 23,9 15,9 22,1 26,9 25,8 20 11 45 24 NNW 1021,0 60 0,0
24.09.2018 03:00:00 24,0 15,8 23,2 27,0 25,9 27 15 50 27 NW 1021,8 60 0,0
24.09.2018 02:00:00 24,5 16,2 23,9 27,2 25,9 34 18 56 30 NW 1021,7 60 0,0
24.09.2018 01:00:00 25,6 15,9 24,7 27,3 25,8 30 16 55 30 NW 1021,2 60 0,0
24.09.2018 00:00:00 26,7 16,0 25,5 27,5 25,9 22 12 45 24 NW 1021,2 60 0,0
23.09.2018 23:00:00 27,2 14,9 25,9 27,6 25,9 26 14 42 23 NW 1021,1 60 0,0
23.09.2018 22:00:00 27,7 14,7 26,6 27,7 25,8 22 12 44 24 NW 1020,9 60 0,0
23.09.2018 21:00:00 28,7 15,6 27,4 27,7 25,9 23 12 47 25 NW 1020,4 60 0,0
23.09.2018 20:00:00 29,5 14,9 28,1 27,7 25,9 25 14 42 23 NW 1019,6 60 0,0
23.09.2018 19:00:00 30,9 14,9 30,1 27,6 25,9 22 12 44 24 NW 1019,0 55 0,0
23.09.2018 18:00:00 32,4 13,6 32,7 27,3 25,8 25 14 41 22 NNW 1018,4 36 0,0
23.09.2018 17:00:00 33,6 13,1 37,1 27,0 25,9 13 7 41 22 NW 1018,4 60 0,0
23.09.2018 16:00:00 33,6 13,1 37,7 26,6 25,9 20 11 34 19 WNW 1018,5 60 0,0
23.09.2018 15:00:00 33,3 14,4 37,9 26,1 25,9 15 8 29 15 W 1019,2 60 0,0
23.09.2018 14:00:00 32,7 15,2 40,8 25,8 25,9 13 7 26 14 W 1020,2 60 0,0
23.09.2018 13:00:00 31,2 15,2 39,6 25,5 25,9 16 8 29 16 WNW 1021,0 60 0,0
23.09.2018 12:00:00 29,1 14,9 35,7 25,3 25,9 13 7 31 17 NW 1021,5 45 0,0
23.09.2018 11:00:00 27,9 15,2 31,2 25,4 25,9 18 10 27 15 NW 1022,0 60 0,0
23.09.2018 10:00:00 26,2 15,0 27,4 25,4 25,9 13 7 24 13 NW 1022,2 42 0,0
23.09.2018 09:00:00 24,7 15,3 19,6 25,6 25,9 13 7 22 12 NW 1022,0 55 0,0
23.09.2018 08:00:00 21,1 15,0 19,5 25,7 25,9 7 4 20 11 W 1021,7 60 0,0
23.09.2018 07:00:00 22,7 15,0 19,8 25,8 25,9 12 6 18 10 WNW 1021,6 60 0,0
23.09.2018 06:00:00 21,7 15,1 19,5 25,9 25,9 12 7 18 10 WNW 1021,8 60 0,0
23.09.2018 05:00:00 23,4 14,7 19,2 26,1 25,9 10 5 18 10 W 1021,8 60 0,0
23.09.2018 04:00:00 22,9 14,5 18,2 26,3 25,9 9 5 19 10 W 1022,0 60 0,0
23.09.2018 03:00:00 23,1 14,1 18,5 26,4 25,9 6 3 24 13 NNW 1022,3 60 0,0
23.09.2018 02:00:00 24,2 14,6 20,9 26,6 25,9 14 8 27 15 W 1022,4 60 0,0
23.09.2018 01:00:00 23,5 14,2 18,6 26,7 25,9 12 6 16 9 W 1022,5 60 0,0
23.09.2018 00:00:00 24,2 14,9 22,3 26,9 25,9 11 6 26 14 N 1022,4 60 0,0
22.09.2018 23:00:00 25,2 14,9 22,9 27,0 25,9 13 7 26 14 NW 1022,3 60 0,0
22.09.2018 22:00:00 25,8 14,9 24,1 27,1 25,9 16 9 28 15 NNW 1022,0 60 0,0
22.09.2018 21:00:00 26,7 14,5 25,4 27,2 25,9 22 12 36 19 NNW 1021,7 60 0,0
22.09.2018 20:00:00 27,4 13,7 26,2 27,2 25,9 19 10 37 20 NW 1021,0 60 0,0
22.09.2018 19:00:00 29,0 13,2 28,5 27,1 25,9 23 13 34 19 NW 1020,2 49 0,0
22.09.2018 18:00:00 30,4 12,8 31,7 26,9 25,9 17 9 35 19 NNW 1019,9 57 0,0
22.09.2018 17:00:00 31,2 13,0 28,0 26,7 25,9 20 11 35 19 NW 1019,9 57 0,0
22.09.2018 16:00:00 27,2 15,6 27,7 26,4 25,9 13 7 29 15 ESE 1020,4 60 0,0
22.09.2018 15:00:00 29,5 15,2 31,3 26,1 25,9 7 4 24 13 S 1020,6 42 0,0
22.09.2018 14:00:00 29,9 14,8 37,7 25,7 25,8 6 4 19 10 N 1020,9 60 0,0
22.09.2018 13:00:00 27,4 14,4 36,8 25,5 25,9 12 7 27 14 NW 1021,8 60 0,0
22.09.2018 12:00:00 26,8 14,9 32,9 25,4 25,9 14 8 32 17 WNW 1022,2 60 0,0
22.09.2018 11:00:00 24,4 14,2 29,5 25,4 25,9 15 8 26 14 WNW 1022,3 60 0,0
22.09.2018 10:00:00 22,8 14,1 25,2 25,6 26,0 7 4 26 14 W 1022,5 45 0,0
22.09.2018 09:00:00 21,4 13,6 19,2 25,7 25,9 15 8 28 15 WNW 1022,3 52 0,0
22.09.2018 08:00:00 20,1 12,8 18,8 25,8 25,9 16 9 34 19 WNW 1022,2 60 0,0
22.09.2018 07:00:00 19,7 13,2 19,0 26,0 25,9 22 12 41 22 WNW 1021,8 60 0,0
22.09.2018 06:00:00 20,3 13,7 19,6 26,1 25,9 23 13 45 24 NW 1021,3 60 0,0
22.09.2018 05:00:00 21,3 14,9 20,2 26,3 25,9 26 14 37 20 NW 1021,5 60 0,0
22.09.2018 04:00:00 21,5 15,1 20,1 26,5 25,9 9 5 27 14 NW 1021,4 60 0,0
22.09.2018 03:00:00 22,0 15,4 21,2 26,6 25,9 7 4 34 19 SW 1021,0 60 0,0
22.09.2018 02:00:00 22,2 15,5 21,5 26,7 25,9 18 10 35 19 NNW 1021,2 60 0,0
22.09.2018 01:00:00 22,6 15,4 21,7 26,9 25,9 12 6 44 24 NW 1021,3 60 0,0
22.09.2018 00:00:00 23,8 15,3 22,9 27,1 25,9 21 11 46 25 NNW 1021,1 60 0,0
21.09.2018 23:00:00 25,4 13,9 24,1 27,2 25,9 23 13 40 22 NW 1020,2 60 0,0
21.09.2018 22:00:00 25,7 13,5 24,6 27,3 25,9 20 11 43 23 NNW 1020,1 60 0,0
21.09.2018 21:00:00 26,3 13,1 25,0 27,4 25,9 19 10 44 24 NW 1019,6 60 0,0
21.09.2018 20:00:00 26,7 13,4 25,9 27,4 25,9 24 13 51 28 NW 1018,7 60 0,0
21.09.2018 19:00:00 27,4 14,4 27,3 27,3 25,9 25 14 42 23 NNW 1017,8 44 0,0
21.09.2018 18:00:00 29,0 14,0 30,0 27,0 25,9 22 12 41 22 NW 1017,0 56 0,0
21.09.2018 17:00:00 29,8 14,0 31,9 26,7 25,9 22 12 45 25 NW 1016,8 39 0,0
21.09.2018 16:00:00 30,0 13,7 32,9 26,4 25,9 21 12 36 19 NW 1016,6 42 0,0
21.09.2018 15:00:00 29,0 14,8 33,2 25,9 25,9 18 10 34 18 NNW 1017,1 45 0,0
21.09.2018 14:00:00 28,5 15,8 34,4 25,6 25,9 19 10 36 19 NW 1017,5 50 0,0
21.09.2018 13:00:00 29,3 16,5 38,0 25,3 25,9 20 11 36 19 WNW 1017,7 58 0,0
21.09.2018 12:00:00 28,7 16,3 36,7 25,2 25,9 6 3 20 11 N 1017,6 60 0,0
21.09.2018 11:00:00 26,6 15,9 31,4 25,2 25,9 6 4 21 11 NW 1017,5 56 0,0
21.09.2018 10:00:00 24,7 15,3 25,2 25,3 26,0 3 2 20 11 W 1017,8 51 0,0
21.09.2018 09:00:00 20,6 14,9 16,1 25,5 26,0 6 3 10 5 SSW 1017,5 51 0,0
21.09.2018 08:00:00 17,1 14,0 15,0 25,7 26,0 3 2 10 5 S 1016,9 40 0,0
21.09.2018 07:00:00 17,0 13,5 15,1 25,9 25,9 9 5 11 6 W 1016,2 48 0,0
21.09.2018 06:00:00 17,8 13,9 15,3 26,1 26,0 4 2 8 4 SW 1015,7 46 0,0
21.09.2018 05:00:00 18,4 14,5 15,7 26,3 26,0 2 1 7 4 N 1015,7 45 0,0
21.09.2018 04:00:00 19,8 14,2 16,1 26,5 25,9 4 2 8 5 NNE 1015,8 56 0,0
21.09.2018 03:00:00 21,2 14,4 16,3 26,7 26,0 7 4 12 6 NNW 1015,8 56 0,0
21.09.2018 02:00:00 20,5 14,8 17,1 26,9 25,9 8 5 12 6 WSW 1015,8 48 0,0
21.09.2018 01:00:00 21,1 14,7 17,9 27,2 25,9 8 4 16 9 SW 1016,1 53 0,0
21.09.2018 00:00:00 21,7 14,8 18,2 27,4 25,9 12 6 19 10 W 1016,3 53 0,0
20.09.2018 23:00:00 21,2 15,3 18,3 27,6 26,0 7 4 12 6 W 1016,4 51 0,0
20.09.2018 22:00:00 22,7 15,5 19,5 27,7 25,9 5 3 9 5 NW 1016,6 53 0,0
20.09.2018 21:00:00 24,1 15,8 19,8 27,8 26,0 4 2 9 5 N 1016,4 49 0,0
20.09.2018 20:00:00 25,7 15,4 22,1 27,8 26,0 6 4 8 5 NE 1016,1 50 0,0
20.09.2018 19:00:00 28,1 14,7 27,9 27,7 25,9 7 4 18 10 SE 1016,2 60 0,0
20.09.2018 18:00:00 29,2 14,6 31,2 27,4 25,9 12 7 22 12 SE 1016,3 50 0,0
20.09.2018 17:00:00 30,1 15,0 34,0 27,1 25,9 14 7 24 13 SE 1016,8 49 0,0
20.09.2018 16:00:00 31,4 15,0 34,6 26,7 26,0 16 9 24 13 E 1017,0 60 0,0
20.09.2018 15:00:00 31,2 14,8 34,5 26,2 25,9 13 7 25 13 ESE 1017,7 60 0,0
20.09.2018 14:00:00 30,8 14,8 37,0 25,9 25,9 14 8 27 14 ESE 1018,4 49 0,0
20.09.2018 13:00:00 30,4 14,9 38,1 25,6 25,9 13 7 22 12 E 1018,9 43 0,0
20.09.2018 12:00:00 30,3 15,6 37,7 25,4 26,0 11 6 21 11 E 1019,3 60 0,0
20.09.2018 11:00:00 28,8 15,3 32,7 25,4 26,0 8 4 23 13 NW 1019,5 46 0,0
20.09.2018 10:00:00 27,2 15,2 28,4 25,5 25,9 13 7 23 12 WNW 1019,5 53 0,0
20.09.2018 09:00:00 24,9 15,0 20,3 25,6 26,0 12 7 26 14 W 1019,3 53 0,0
20.09.2018 08:00:00 21,7 13,6 18,3 25,8 26,0 13 7 19 10 WSW 1019,2 58 0,0
20.09.2018 07:00:00 20,8 13,5 17,9 26,0 26,0 8 4 19 10 WSW 1019,0 58 0,0
20.09.2018 06:00:00 22,1 13,7 20,3 26,2 26,0 14 8 23 12 WSW 1018,8 59 0,0
20.09.2018 05:00:00 22,5 14,3 18,2 26,3 26,0 15 8 21 11 WSW 1018,9 60 0,0
20.09.2018 04:00:00 22,0 14,6 18,1 26,5 26,0 8 4 15 8 WSW 1019,2 60 0,0
20.09.2018 03:00:00 21,5 15,3 18,0 26,7 25,9 10 6 14 8 WSW 1019,5 55 0,0
20.09.2018 02:00:00 21,6 15,9 18,1 26,9 26,0 6 3 13 7 WSW 1019,7 54 0,0
20.09.2018 01:00:00 21,6 15,9 19,2 27,1 26,0 7 4 16 9 WSW 1020,0 19 0,0
20.09.2018 00:00:00 22,3 16,8 18,8 27,3 26,0 9 5 13 7 SW 1020,1 49 0,0
19.09.2018 23:00:00 21,4 16,8 19,0 27,5 25,9 8 5 12 7 W 1020,3 49 0,0
19.09.2018 22:00:00 21,6 17,4 19,6 27,7 26,0 9 5 11 6 W 1020,2 43 0,0
19.09.2018 21:00:00 22,9 18,0 20,1 27,8 25,9 0 0 4 2 N 1019,8 47 0,0
19.09.2018 20:00:00 24,4 18,1 21,9 27,8 25,9 2 1 11 6 ESE 1019,5 50 0,0
19.09.2018 19:00:00 25,8 17,7 26,1 27,6 25,9 7 4 16 9 SE 1019,5 59 0,0
19.09.2018 18:00:00 27,1 18,4 29,5 27,4 26,0 10 5 17 9 SE 1019,1 42 0,0
19.09.2018 17:00:00 28,0 17,8 31,8 27,1 26,0 10 5 18 10 E 1019,2 47 0,0
19.09.2018 16:00:00 28,0 18,4 31,7 26,7 26,0 10 5 22 12 ESE 1019,5 20 0,0
19.09.2018 15:00:00 28,3 19,2 31,8 26,3 26,0 14 7 21 11 E 1020,1 47 0,0
19.09.2018 14:00:00 28,1 19,9 34,9 25,9 26,0 12 6 23 12 E 1020,4 31 0,0
19.09.2018 13:00:00 27,7 18,4 36,8 25,6 26,0 7 4 19 11 ENE 1020,5 49 0,0
19.09.2018 12:00:00 26,3 17,9 35,2 25,5 25,9 6 3 14 8 N 1021,0 37 0,0

tt = temperature
td = dewpoint
tt 5cm = temperature 5cm
tt -20cm = temperature -20cm
tt -100cm = temperature -100cm
ff = wind speed
fx = gusts
dd = wind direction
ppp = reduced air pressure
vv = visibility
rr = precipitation

Next stations